CAPE
122 95 92 56 53 64 34 41 35 16 0 0 0 0 0 0 1 1 1 0 1 1 2 2 1 0 0 0 0 0 0 0 0 0 0 0 0 0 0 0 0 0 0
47 70 44 41 27 34 45 57 51 3 1 0 0 0 0 0 0 1 1 0 1 2 1 2 2 1 1 0 0 2 0 0 0 0 0 0 0 0 0 0 0 0 0
11 3 21 20 16 11 31 38 22 1 1 1 0 0 0 0 0 0 0 0 1 1 1 2 2 2 3 4 3 3 3 0 0 0 0 0 0 0 0 0 0 0 0
0 0 3 4 7 10 7 10 5 0 0 0 0 0 0 0 0 0 0 0 1 1 1 1 2 2 3 4 4 2 2 1 0 0 0 0 0 0 0 0 0 0 0
4 2 1 1 0 0 1 3 2 0 0 0 0 0 0 0 0 1 1 1 2 1 1 0 0 1 2 2 3 3 3 2 0 0 0 0 0 0 0 0 0 0 0
1 2 0 2 2 1 1 0 0 0 0 0 0 0 0 1 0 0 0 1 1 1 1 1 0 0 0 0 0 2 0 0 0 0 0 0 0 0 0 0 0 0 0
0 0 0 0 0 1 1 0 0 0 0 0 0 0 0 0 0 0 0 1 1 1 2 1 3 1 0 0 1 3 3 0 0 0 0 0 0 0 0 0 0 0 0
0 0 0 0 0 0 0 0 0 1 0 0 0 0 0 0 0 0 0 0 0 0 0 0 1 1 1 1 1 1 2 0 0 0 0 0 0 0 0 0 0 0 0
0 0 0 0 0 0 0 0 0 0 0 1 1 0 0 0 1 1 1 0 0 0 0 0 1 1 2 2 1 1 1 0 0 0 0 0 0 0 0 0 0 0 0
0 0 0 0 0 0 0 0 0 0 0 0 0 1 2 0 1 2 2 0 0 1 1 1 1 0 2 2 0 1 0 0 0 0 0 0 0 0 0 0 0 0 1
0 0 0 0 0 0 0 0 0 0 0 0 0 0 1 1 1 1 3 2 1 1 1 1 1 1 1 2 1 0 0 0 0 0 0 0 0 0 0 0 0 0 0
0 0 0 0 0 0 1 1 1 1 0 0 0 0 1 0 0 0 2 4 1 1 1 2 2 4 3 5 3 0 0 0 0 0 0 0 0 0 0 0 0 0 0
0 0 0 0 0 0 0 1 0 2 2 1 0 0 0 0 0 0 2 2 1 1 0 0 1 3 4 4 2 2 0 0 0 0 0 0 0 0 0 0 0 0 0
0 0 0 0 0 0 1 0 3 2 2 2 1 1 1 1 0 0 0 1 0 1 0 1 2 3 2 1 1 0 1 0 0 0 0 0 0 0 0 0 0 0 0
0 0 0 0 0 0 0 2 2 1 1 2 3 2 2 1 1 0 0 1 1 0 0 1 3 2 2 1 1 0 1 0 0 0 0 0 0 0 1 0 0 0 1
0 0 0 0 0 0 0 0 0 1 1 2 4 3 2 2 2 2 1 2 1 1 1 2 3 2 2 1 1 1 0 0 2 1 0 1 0 0 0 0 0 0 0
0 0 0 0 0 0 0 0 0 0 0 1 1 3 2 5 2 1 2 2 1 1 1 2 1 0 0 0 0 0 0 1 0 1 1 1 0 0 0 0 0 0 0
0 0 0 0 0 1 2 1 0 2 2 1 0 2 4 3 3 2 1 0 0 0 1 1 1 0 0 0 0 0 0 0 0 0 0 0 0 0 0 0 0 0 0
0 0 0 0 0 1 2 2 2 1 1 0 0 0 0 1 0 0 0 0 0 0 0 0 0 0 0 0 0 0 0 0 0 0 0 0 0 0 0 0 0 0 0
0 0 0 0 0 0 1 0 0 0 0 0 1 3 0 0 0 0 0 0 0 0 0 0 0 0 0 0 0 0 0 0 0 0 0 0 0 0 0 0 0 0 0
0 0 0 0 0 1 0 0 1 1 0 1 2 0 2 0 0 0 0 0 0 0 0 0 0 0 0 0 0 0 0 0 0 0 0 0 0 0 0 0 0 0 0
0 0 0 0 0 0 0 0 0 1 0 0 1 1 1 0 0 0 0 0 0 0 0 0 0 0 0 0 0 0 0 0 0 0 0 0 0 0 0 0 0 0 0
0 0 0 0 0 0 0 0 0 0 0 0 0 0 0 0 0 0 0 0 0 0 0 0 0 0 0 0 0 0 0 0 0 0 0 0 0 0 0 0 0 0 0
0 0 0 0 0 0 0 0 0 0 0 0 0 0 0 0 0 0 0 0 0 0 0 0 0 0 0 0 0 0 0 0 0 0 0 0 0 0 0 0 0 0 0
0 0 0 0 0 0 0 0 0 0 0 0 0 0 0 0 0 0 0 0 0 0 0 0 0 0 0 0 0 0 0 0 0 0 0 0 0 0 0 0 0 0 0
0 0 0 0 0 0 0 0 0 0 0 0 0 0 0 0 0 0 0 0 0 0 0 0 0 0 0 0 0 0 0 0 0 0 0 0 0 0 0 0 0 0 0
CIN
-76 -80 -95 -120 -116 -110 -94 -94 -111 -118 0 0 0 0 0 0 0 0 0 0 0 0 0 0 0 0 0 0 0 0 0 0 0 0 0 0 0 0 0 0 0 0 0
-131 -64 -87 -129 -105 -129 -139 -143 -82 -55 0 0 0 0 0 0 0 0 0 0 0 0 0 0 0 0 0 0 0 0 0 0 0 0 0 0 0 0 0 0 0 0 0
-3 -19 -81 -136 -141 -150 -164 -135 -101 -4 -1 0 -1 0 0 0 0 0 0 0 0 0 0 0 0 0 0 0 0 0 0 0 0 0 0 0 0 0 0 0 0 0 0
0 0 -4 -3 -1 -154 -78 -159 -137 -6 -2 -1 0 0 0 0 0 0 0 0 0 0 0 0 0 0 0 0 0 0 0 0 0 0 0 0 0 0 0 0 0 0 0
0 0 0 0 0 0 0 -1 -2 -2 0 0 -1 0 0 0 0 0 0 0 0 0 0 0 0 0 0 0 0 0 0 0 0 0 0 0 0 0 0 0 0 0 0
0 0 0 0 0 0 0 0 0 0 0 0 0 0 0 0 0 0 0 0 0 0 0 0 0 0 0 0 0 0 0 0 0 0 0 0 0 0 0 0 0 0 0
0 0 0 0 0 0 0 0 0 0 0 0 0 0 0 0 0 0 0 0 0 0 0 0 0 0 0 0 0 0 0 0 0 0 0 0 0 0 0 0 0 0 0
0 0 0 0 0 0 0 0 0 0 0 0 0 0 0 0 0 0 0 0 0 0 0 0 0 0 0 0 0 0 0 0 0 0 0 0 0 0 0 0 0 0 0
0 0 0 0 0 0 0 0 0 0 0 0 0 0 0 0 0 0 0 0 0 0 0 0 0 0 0 0 0 0 0 0 0 0 0 0 0 0 0 0 0 0 0
0 0 0 0 0 0 0 0 0 0 0 0 0 0 0 0 0 0 0 0 0 0 0 0 0 0 0 0 0 0 0 0 0 0 0 0 0 0 0 0 0 0 0
0 0 0 0 0 0 0 0 0 0 0 0 0 0 0 0 0 0 0 0 0 0 0 0 0 0 0 0 0 0 0 0 0 0 0 0 0 0 0 0 0 0 0
0 0 0 0 0 0 0 0 0 0 0 0 0 0 0 0 0 0 0 0 0 0 0 0 0 0 0 0 0 0 0 0 0 0 0 0 0 0 0 0 0 0 0
0 0 0 0 0 0 0 0 0 0 0 0 0 0 0 0 0 0 0 0 0 0 0 0 0 0 0 0 0 0 0 0 0 0 0 0 0 0 0 0 0 0 0
0 0 0 0 0 0 0 0 0 0 0 0 0 0 0 0 0 0 0 0 0 0 0 0 0 0 0 0 0 0 0 0 0 0 0 0 0 0 0 0 0 0 0
0 0 0 0 0 0 0 0 0 0 0 0 0 0 0 0 0 0 0 0 0 0 0 0 0 0 0 0 0 0 0 0 0 0 0 0 0 0 0 0 0 0 0
0 0 0 0 0 0 0 0 0 0 0 0 0 0 0 0 0 0 0 0 0 0 0 0 0 0 0 0 0 0 0 0 0 0 0 0 0 0 0 0 0 0 0
0 0 0 0 0 0 0 0 0 0 0 0 0 0 0 0 0 0 0 0 0 0 0 0 0 0 0 0 0 0 0 0 0 0 0 0 0 0 0 0 0 0 0
0 0 0 0 0 0 0 0 0 0 0 0 0 0 0 0 0 0 0 0 0 0 0 0 0 0 0 0 0 0 0 0 0 0 0 0 0 0 0 0 0 0 0
0 0 0 0 0 0 0 0 0 0 0 0 0 0 0 0 0 0 0 0 0 0 0 0 0 0 0 0 0 0 0 0 0 0 0 0 0 0 0 0 0 0 0
0 0 0 0 0 0 0 0 0 0 0 0 0 0 0 0 0 0 0 0 0 0 0 0 0 0 0 0 0 0 0 0 0 0 0 0 0 0 0 0 0 0 0
0 0 0 0 0 0 0 0 0 0 0 0 0 0 0 0 0 0 0 0 0 0 0 0 0 0 0 0 0 0 0 0 0 0 0 0 0 0 0 0 0 0 0
0 0 0 0 0 0 0 0 0 0 0 0 0 0 0 0 0 0 0 0 0 0 0 0 0 0 0 0 0 0 0 0 0 0 0 0 0 0 0 0 0 0 0
0 0 0 0 0 0 0 0 0 0 0 0 0 0 0 0 0 0 0 0 0 0 0 0 0 0 0 0 0 0 0 0 0 0 0 0 0 0 0 0 0 0 0
0 0 0 0 0 0 0 0 0 0 0 0 0 0 0 0 0 0 0 0 0 0 0 0 0 0 0 0 0 0 0 0 0 0 0 0 0 0 0 0 0 0 0
0 0 0 0 0 0 0 0 0 0 0 0 0 0 0 0 0 0 0 0 0 0 0 0 0 0 0 0 0 0 0 0 0 0 0 0 0 0 0 0 0 0 0
0 0 0 0 0 0 0 0 0 0 0 0 0 0 0 0 0 0 0 0 0 0 0 0 0 0 0 0 0 0 0 0 0 0 0 0 0 0 0 0 0 0 0
Wind_Speed
38 32 32 33 32 32 29 28 26 27 27 27 27 29 30 31 30 31 30 29 29 28 27 27 26 24 25 23 20 20 21 19 22 20 17 13 11 8 7 6 5 6 7
39 37 35 36 36 33 32 31 31 29 28 29 30 31 32 32 31 31 31 30 30 30 29 29 29 25 25 24 24 23 24 20 20 21 18 17 15 9 8 7 6 7 8
35 37 36 36 35 36 36 36 34 31 30 30 31 33 33 32 33 32 31 31 33 32 32 33 30 28 27 27 27 25 24 20 20 21 19 18 17 9 9 8 8 9 8
30 32 35 36 37 36 36 33 33 31 31 31 31 32 33 33 33 32 32 33 34 34 33 34 33 32 31 29 28 27 24 20 19 21 18 19 17 12 10 10 10 9 10
23 24 28 32 33 35 37 36 35 32 33 33 33 34 35 36 36 35 35 36 37 37 36 36 34 33 34 31 27 27 25 22 19 18 19 18 17 12 12 13 11 10 11
20 23 26 28 29 31 34 35 35 37 35 34 35 34 34 36 35 34 35 38 39 39 38 37 37 35 34 32 29 26 25 22 19 19 19 19 17 14 12 12 10 12 14
21 23 25 27 29 29 30 31 33 34 36 36 36 36 37 38 38 37 36 37 39 38 39 41 39 33 34 32 27 24 21 18 20 19 18 16 15 13 11 11 10 12 14
23 24 26 28 29 29 30 31 32 33 33 34 35 35 37 37 37 39 38 39 39 41 41 35 36 36 29 25 24 20 19 17 16 17 16 13 12 11 11 11 10 12 16
24 25 27 29 30 32 33 35 34 36 37 37 37 37 38 38 37 39 36 34 33 34 32 30 29 31 24 17 18 19 15 15 13 13 11 10 10 9 8 8 12 13 17
25 27 28 29 29 31 33 35 37 38 39 40 40 39 40 41 38 37 35 34 36 31 29 27 24 23 19 16 17 16 16 15 13 11 9 8 8 9 7 10 11 15 17
27 27 28 29 29 29 31 32 34 36 37 38 40 41 41 38 36 37 35 33 33 31 30 28 24 20 17 15 15 16 15 13 12 12 10 10 10 9 9 12 15 16 14
28 29 30 31 31 32 32 33 33 34 36 37 37 38 37 37 35 34 31 25 26 28 27 25 23 19 16 13 11 11 11 11 12 12 11 12 11 9 10 13 14 14 13
33 34 34 34 35 35 35 35 35 34 35 36 37 39 39 38 36 34 32 27 26 26 25 24 20 14 13 12 11 11 12 13 13 14 14 14 10 9 10 11 11 11 12
34 35 36 36 37 36 36 35 36 37 37 38 39 39 39 38 36 34 30 24 22 22 22 20 18 15 13 12 11 12 15 15 15 14 14 10 10 9 10 9 8 7 11
35 35 36 36 37 37 37 37 37 37 38 39 39 38 39 39 38 37 35 30 25 24 23 20 17 15 13 13 14 14 12 11 14 12 12 12 9 8 8 7 7 7 10
35 36 37 37 37 37 38 39 37 38 38 38 40 39 36 35 36 36 32 27 24 20 22 23 22 19 17 14 13 13 15 15 16 14 13 10 9 10 8 6 5 7 9
34 35 35 36 37 37 38 39 40 39 38 39 41 40 40 39 36 34 29 24 22 20 24 21 19 18 16 14 15 16 17 16 13 12 10 9 8 8 6 5 6 8 10
33 33 33 34 35 35 36 36 37 39 40 41 41 41 41 39 38 34 26 19 19 23 21 20 19 18 16 14 14 13 12 11 10 9 8 8 8 6 7 7 7 8 8
33 34 33 33 34 35 35 36 36 37 38 39 41 41 41 39 36 33 28 24 20 19 18 17 17 16 14 14 12 11 10 9 8 8 8 6 7 6 7 8 8 8 9
31 32 34 33 34 35 35 35 36 36 37 38 39 41 39 38 37 33 29 25 23 20 18 18 17 15 14 12 10 7 6 7 7 6 7 7 7 7 6 6 8 9 11
31 32 34 33 33 33 33 34 34 34 35 35 35 36 37 35 34 33 30 27 24 21 18 16 14 13 11 9 8 7 6 6 6 7 7 8 7 5 6 8 9 11 12
25 28 30 32 32 32 32 32 32 32 32 32 31 32 32 30 30 30 29 27 24 22 20 17 15 13 11 10 9 7 6 6 6 6 5 5 6 7 8 9 11 13 16
22 23 25 26 28 31 32 31 31 30 30 30 29 29 29 28 27 27 26 25 24 22 20 19 16 15 14 12 11 10 8 7 7 6 6 6 7 9 10 12 14 16 18
24 25 25 25 25 26 29 30 29 29 28 28 28 28 27 26 25 24 23 23 21 21 20 18 17 16 14 13 12 10 10 9 9 8 8 8 9 11 13 15 16 18 19
25 26 26 26 26 24 26 27 28 27 27 27 26 25 24 24 23 22 22 21 20 19 19 18 17 16 15 14 13 12 12 11 10 10 11 11 12 14 15 17 18 19 21
25 26 25 25 25 23 25 26 27 26 26 25 24 23 22 22 21 21 20 20 19 19 17 17 17 16 15 14 14 13 13 12 12 12 13 14 15 16 18 19 19 21 22
Wind_Direction
253 258 259 261 265 265 265 268 266 267 265 262 260 260 259 259 260 262 263 265 265 267 268 270 272 273 277 274 269 274 274 280 282 293 297 299 298 289 294 296 315 329 339
254 258 261 263 264 266 269 270 271 269 268 266 265 265 264 262 261 261 262 263 264 264 265 268 269 270 266 270 266 266 269 268 280 273 282 287 297 282 289 287 297 316 325
260 259 263 264 265 266 269 271 272 272 270 271 269 267 266 266 265 264 263 264 266 266 267 269 266 270 268 270 269 265 265 263 265 274 275 284 297 285 286 295 295 305 317
265 267 266 265 266 269 271 274 275 274 273 273 271 270 269 268 267 265 266 267 268 269 269 271 271 269 268 271 265 267 267 260 260 264 269 276 286 290 283 287 289 302 313
277 278 277 275 275 275 275 275 275 276 275 276 276 275 274 274 274 272 271 272 272 275 274 276 272 270 267 264 270 266 253 254 251 248 260 269 272 278 261 285 294 306 312
297 291 288 285 284 283 282 281 280 279 278 279 278 278 278 278 278 275 275 276 275 275 276 276 276 277 275 270 271 262 257 254 247 248 255 257 260 270 277 278 294 303 309
312 304 298 293 288 290 290 288 287 285 283 284 285 286 286 285 285 283 280 279 281 280 281 284 281 280 282 276 275 263 247 241 242 243 248 252 253 261 268 273 284 303 310
316 313 308 300 295 294 293 291 291 291 290 290 290 291 291 292 293 290 285 282 281 281 284 286 282 283 281 274 269 262 258 252 238 242 249 248 259 268 266 271 281 302 311
324 323 317 313 304 299 297 295 295 292 291 293 293 295 295 295 296 297 296 294 293 286 289 286 287 283 277 272 259 258 252 248 248 251 255 261 266 268 264 276 287 293 303
333 329 327 324 319 311 306 302 298 298 295 296 295 297 297 297 298 299 296 293 290 291 295 290 292 283 277 271 255 246 249 237 243 238 251 264 272 278 274 283 283 291 304
334 334 333 332 328 322 317 316 310 307 304 301 299 299 299 299 304 302 295 292 290 292 294 290 289 285 273 270 255 243 241 228 226 228 245 264 275 283 285 291 294 294 296
335 336 337 336 334 331 326 322 319 315 311 308 306 303 303 305 306 304 302 298 297 297 299 301 298 289 281 268 261 241 243 228 231 240 246 259 262 268 283 293 296 301 306
350 351 351 352 350 349 346 343 340 336 330 325 318 311 308 309 308 307 305 299 298 298 303 304 303 290 283 270 257 251 239 251 243 246 253 265 268 277 291 298 303 306 314
354 352 352 352 350 350 351 348 343 339 334 329 322 318 314 311 311 311 309 306 302 300 306 307 308 300 287 271 261 259 261 258 243 250 261 268 278 277 283 291 298 301 309
356 355 353 354 355 356 356 355 354 352 345 341 335 327 320 315 311 307 304 300 296 294 299 301 299 298 290 276 270 267 260 250 258 261 263 267 270 278 288 297 305 307 311
353 352 354 354 355 357 357 355 359 356 357 354 350 344 336 328 320 313 307 301 293 291 296 291 289 288 288 285 277 269 272 267 270 272 271 267 267 269 282 306 316 313 314
359 359 1 0 358 358 357 356 355 358 1 359 357 355 350 343 336 328 317 305 297 289 289 287 288 286 288 288 284 277 276 277 276 275 276 275 272 278 289 313 321 320 322
360 1 0 0 1 1 0 359 358 357 356 355 0 0 357 354 352 350 346 334 313 304 297 290 290 290 288 289 286 283 279 277 279 280 280 282 282 292 304 312 321 325 328
358 357 358 359 359 357 357 358 359 359 0 360 359 1 2 3 3 3 360 346 334 325 314 308 301 295 301 295 294 290 285 280 283 283 285 291 293 308 314 321 327 333 338
359 358 357 357 356 355 356 357 357 358 360 2 3 4 7 11 8 8 9 4 354 345 328 311 308 308 307 303 303 300 296 293 291 294 299 303 314 318 323 328 336 339 338
360 358 356 357 356 356 356 356 356 356 357 360 2 5 9 16 19 21 22 14 10 5 352 336 338 329 323 333 320 325 319 316 312 306 309 313 324 343 351 350 346 344 343
18 12 6 0 358 356 354 354 354 354 355 357 0 4 7 15 19 25 23 19 13 11 9 2 1 357 345 342 1 2 3 345 341 344 352 359 6 1 356 349 346 345 340
24 20 16 13 6 356 353 352 352 352 353 355 358 1 5 9 14 18 17 11 9 8 11 12 7 5 6 358 351 4 21 15 18 29 30 18 7 357 350 346 344 340 338
16 14 12 12 11 6 356 351 352 351 352 353 356 358 2 7 9 10 21 9 8 6 6 8 10 12 10 5 1 3 14 21 21 23 24 14 3 352 346 344 340 339 339
11 11 10 8 9 8 2 355 353 353 350 349 353 359 2 7 10 7 10 25 9 9 11 11 10 13 18 24 26 25 26 24 20 12 2 359 353 348 346 342 340 339 338
7 6 7 7 7 8 2 356 351 353 352 350 351 355 2 6 13 10 7 11 22 19 10 12 15 14 13 12 11 11 13 14 12 7 1 354 350 346 343 342 340 338 337